weather.gov     
National Weather Service

Other Public Products
NWS Homepage
This page is being discontinued on March 12, 2014.
The same data is available at this site. Please update your bookmarks.
Thank you, and we apologize for the inconvenience.
Please send an email to SR-SRH.Webmaster@noaa.gov with any concerns.


Current Version
Previous Version:    01  02  03  04  05  06  07  08  09  10  11  12  13  14  15  16  17  18  19  20  21  22  23  24  25  26  27  28  29  30  
   31  32  33  34  35  36  37  38  39  40  41  42  43  44  45  46  47  48  49  50  51  52  53  54  55  56  57  58  59  60  
[Printable]
600
FPUS83 KFGF 260731
OPUFGF
PRAIRIE TO PINES WEATHER ROUNDUP
NATIONAL WEATHER SERVICE EASTERN NORTH DAKOTA/GRAND FORKS ND
200 AM CDT SUN OCT 26 2014

 **SATELLITE DATA USED TO AUGMENT SKY COVER AT AUTOMATED STATIONS**
 *****  WEATHER ACROSS EASTERN NORTH DAKOTA  *****

CITY           SKY/WX    TMP DP  RH WIND       PRES   REMARKS
GRAND FORKS    CLEAR     34  24  67 S5        29.97F
GRAND FORKS AF PTCLDY    33  25  71 CALM      29.97F
GRAND CITY NWS   N/A     32 N/A N/A SW1         N/A
BUXTON           N/A     40  24  52 SW2         N/A
DEVILS LAKE    CLEAR     43  28  56 SE7       29.91F
FARGO          PTCLDY    38  22  52 SE5       29.99S
WAHPETON ARPT  SUNNY     36  23  60 SE5       29.99F
$$

 *****  WEATHER ACROSS CENTRAL AND WESTERN NORTH DAKOTA  *****

CITY           SKY/WX    TMP DP  RH WIND       PRES   REMARKS
JAMESTOWN      CLEAR     39  29  67 SE7       29.93F
BISMARCK       CLEAR     45  32  60 E12       29.86F
MINOT          PTCLDY    41  30  65 SE5       29.82F
MINOT AFB      PTCLDY    37  32  84 SE8       29.80F
GARRISON         N/A     46  32  58 SE8       29.81F
WILLISTON      MOCLDY    53  30  41 SE10      29.68F
DICKINSON      PTCLDY    50  30  46 SE18      29.69F
HETTINGER      PTCLDY    49  31  49 E13       29.75F
$$

 *****  OTHER OBSERVATIONS NORTHEAST NORTH DAKOTA  *****

CITY           SKY/WX    TMP DP  RH WIND       PRES   REMARKS
WALHALLA       FAIR      36  25  64 CALM      29.94F
LANGDON        FAIR      30  19  64 S5        29.93F
CAVALIER       FAIR      32  27  80 S5        29.95S
GRAFTON        FAIR      32  23  69 SW5       29.95F
CANDO          FAIR      36  28  75 SE9       29.92S
FORT TOTTEN      N/A     45  23  42 SE7       29.95
ROLLA          FAIR      37  25  60 S9        29.90F
RUGBY          FAIR      45  28  53 SE13      29.87F
 ***** THE ABOVE OBSERVATIONS ARE NON NWS ARE NOT QUALITY
        CONTROLLED AND MAY MIS-REPORT RAIN FOR SNOW...
$$

 *****  OTHER OBSERVATIONS SOUTHEAST NORTH DAKOTA *****

CITY           SKY/WX    TMP DP  RH WIND       PRES   REMARKS
COOPERSTOWN    NOT AVBL
VALLEY CITY    FAIR      37  27  65 S3        29.95F
OAKES            N/A     36  30  80 SE8       29.94F
GWINNER        SUNNY     37  34  87 CALM      29.96F
BUFFALO          N/A     42  20  40 S10         N/A
WYNDMERE         N/A     43  28  56 SE3         N/A
 ***** THE ABOVE OBSERVATIONS ARE NON NWS ARE NOT QUALITY
       CONTROLLED AND MAY MIS-REPORT RAIN FOR SNOW...
$$

  *****  WEATHER ACROSS NORTHERN MINNESOTA  *****

CITY           SKY/WX    TMP DP  RH WIND       PRES   REMARKS
FLAG ISLAND    CLEAR     39  30  70 NW6       29.95S
WARROAD        CLEAR     32  27  80 SW3       29.97R
ROSEAU         CLEAR     34  25  69 CALM      29.96S
HALLOCK        PTCLDY    30  21  69 SE5       29.96S
THF RVR FALLS  PTCLDY    36  23  60 S3        29.98F
HALSTAD          N/A     30  19  65 S6          N/A  WCI  24
FOSSTON        CLEAR     30  23  74 S6        30.00S WCI  24
BAUDETTE       CLEAR     33  27  78 CALM      29.96S
WASKISH        CLEAR     28  27  93 CALM      29.97S
CROOKSTON      CLEAR     32  25  74 SE7       29.99F
$$
  *****  WEATHER ACROSS CENTRAL AND WEST MINNESOTA  *****

CITY           SKY/WX    TMP DP  RH WIND       PRES   REMARKS
BEMIDJI        CLEAR     32  26  76 SW3       29.99R
PARK RAPIDS    CLEAR     31  23  72 CALM      30.00S
WADENA         PTCLDY    30  27  86 CALM      30.00F
DETROIT LAKES  PTCLDY    36  32  87 CALM      30.00F
MOORHEAD       PTCLDY    37  27  65 S7        29.99F
FERGUS FALLS   CLEAR     43  25  49 SE6       30.01F
ELBOW LAKE     FAIR      42  32  69 SE5       30.00F
MORRIS MN      PTCLDY    34  27  75 S6        30.00F
STAPLES        CLEAR     30  27  86 CALM      30.01F
WHEATON        CLEAR     36  25  64 SE6       30.01F
$$
  *****  WEATHER ELSEWHERE ACROSS MINNESOTA  *****

CITY           SKY/WX    TMP DP  RH WIND       PRES   REMARKS
DULUTH         CLEAR     41  25  53 W8        29.97S
INTRNTL FALLS  CLEAR     24  21  88 CALM      29.95S
ELY            CLEAR     34  27  75 W3        29.94S
CLOQUET        CLEAR     39  27  60 W7        29.98S
BRAINERD       CLEAR     33  27  78 S3        30.02S
HIBBING        CLEAR     33  24  69 W5        29.97S
ALEXANDRIA     CLEAR     37  30  75 S5        30.03F
SAINT CLOUD    CLEAR     36  28  73 CALM      30.03S
MINNEAPOLIS    CLEAR     43  28  55 CALM      30.05S
$$

  *****  WEATHER ACROSS SOUTH DAKOTA  *****

CITY           SKY/WX    TMP DP  RH WIND       PRES   REMARKS
SIOUX FALLS    CLEAR     40  32  73 E5        30.00F
BROOKINGS      NOT AVBL
WATERTOWN      CLEAR     42  30  62 SE6       29.99F
HURON          CLEAR     44  31  60 SE9       29.95F
SISSETON         N/A     34  27  75 S5        29.98F
ABERDEEN       CLEAR     36  30  79 SE8       29.94F
MITCHELL       CLEAR     46  35  65 SE9       29.96F
PIERRE         CLEAR     47  35  63 E9        29.86F
MOBRIDGE       CLEAR     51  31  46 SE17      29.84F
RAPID CITY     CLOUDY    48  37  65 SE7       29.76F
$$

  *****  SOME WEATHER IN NEARBY STATES *****

CITY           SKY/WX    TMP DP  RH WIND       PRES   REMARKS
GLASGOW MT     MOCLDY    48  32  53 E10       29.56F
GREAT FALLS MT CLOUDY    48  38  68 S10       29.60F
CHEYENNE WY    CLEAR     48  25  40 SW7       29.98F
SCOTTSBLUFF NE CLEAR     47  39  74 E9        29.88F
OMAHA NE       CLEAR     57  38  48 SE8       29.98F
DES MOINES IA  CLEAR     54  34  46 E7        30.04F
DAVENPORT IA   CLEAR     39  33  79 W6        30.05S
CHICAGO IL     CLEAR     50  29  44 W9        29.98R
EAU CLAIRE WI  CLEAR     41  27  57 SW3       30.01F
LA CROSSE WI   CLEAR     40  34  79 CALM      30.04S
$$

  *****  SOME NATIONAL WEATHER *****

CITY           SKY/WX    TMP DP  RH WIND       PRES   REMARKS
LA GUARDIA NY  MOCLDY    59  49  69 W6        29.55S
RALEIGH NC     CLEAR     51  42  71 CALM      29.84S
ATLANTA GA     CLEAR     60  53  77 NW10      30.00F
NEW ORLEANS LA CLEAR     63  59  87 CALM      30.06F
OKLAHOMA CITY  CLEAR     65  57  75 SE6       29.98S
ALBUQUERQUE NM PTCLDY    56  36  47 SE9       30.19S
SALT LAKE CITY PTCLDY    67  40  37 S15       29.91S
LOS ANGELES CA CLEAR     66  61  84 CALM      30.01F
BOISE ID       CLOUDY    58  36  43 W8        29.91R
SEATTLE WA     CLOUDY    52  45  77 S20G25    29.76R
$$

*** WEATHER ACROSS MANITOBA...SASKATCHEWAN AND ONTARIO ***
                ***ONTARIO***

CITY           SKY/WX    TMP DP  RH WIND       PRES   REMARKS
GERALDTON      CLOUDY    39  30  70 NW15G23   29.77R
THUNDER BAY    CLEAR     43  30  61 W10       29.87R
SIOUX LOOKOUT  CLEAR     36  28  75 NW10      29.90
TORONTO        PTCLDY    48  37  66 W16G23    29.63S
BIG TROUT LK   CLOUDY    37  30  75 NW18G29   29.74R
PICKLE LAKE    NOT AVBL
DRYDEN         CLEAR     32  28  86 SW7       29.92R
KENORA         CLEAR     37  30  75 N6        29.95R
$$
                *** MANITOBA***

CITY           SKY/WX    TMP DP  RH WIND       PRES   REMARKS
BRANDON        MOCLDY    34  27  75 E8        29.90F
DAUPHIN        CLEAR     32  28  86 SE6       29.93F
ISLAND LAKE    PTCLDY    36  30  80 W14       29.86R
PILOT MOUND      N/A     32  23  69 SE7         N/A
THE PAS        PTCLDY    27  23  86 SE2       29.91F
THOMPSON       MOCLDY    34  32  93 W7        29.86R
WINNIPEG       CLEAR     32  27  80 E5        29.95F
LYNN LAKE      CLOUDY    34  30  86 W5        29.87S
CHURCHILL      CLOUDY    32  28  86 N18G30    29.73R WCI  20
GILLAM         PTCLDY    36  32  87 NW15      29.78R
$$
                ***SASKATCHEWAN***

CITY           SKY/WX    TMP DP  RH WIND       PRES   REMARKS
ESTEVAN        MOCLDY    41  32  70 E14       29.73F
KINDERSLEY     CLOUDY    43  32  65 SE17G24   29.52F
LLOYDMINSTER   CLOUDY    39  25  56 E14G20    29.55F
PRINCE ALBERT  CLOUDY    36  27  69 E14       29.77F
REGINA         CLEAR     45  30  57 E18G25    29.68F
YORKTON        MOCLDY    36  28  75 SE8       29.83F




U.S. Dept. of Commerce
NOAA National Weather Service
1325 East West Highway
Silver Spring, MD 20910
E-mail: w-nws.webmaster@noaa.gov
Page last modified: May 16, 2007
NATIONAL WEATHER SERVICE: for Safety, for Work, for Fun - FOR LIFE